Tracking 29892 objects as of 21-Nov-2024
HD Live streaming from Space Station
objects crossing your sky now

STARLINK-5397

Track STARLINK-5397 now!
10-day predictions
STARLINK-5397 is classified as:


NORAD ID: 54871
Int'l Code: 2022-177BD
Perigee: 565.2 km
Apogee: 567.2 km
Inclination: 43.0 °
Period: 95.8 minutes
Semi major axis: 6937 km
RCS: Unknown
Launch date: December 28, 2022
Source: United States (US)
Launch site: AIR FORCE EASTERN TEST RANGE (AFETR)
Your satellite tracking list
Your tracking list is empty




NASA's NSSDC Master Catalog

Two Line Element Set (TLE):
1 54871U 22177BD  24325.93985201 -.00000191  00000-0  94884-6 0  9998
2 54871  43.0028 174.3174 0001427 256.0023 104.0661 15.02532746105844
Source of the keplerian elements: AFSPC